Dewpoint
33 25 20 21 21 21 20 19 20 22 26 26 25 26 23 21 20 21 21 22 24 25 27 28 29 29 30 32 34 32 35 38 40 41 41 42 43 50 49 46 43 41 41 43
24 22 26 25 27 27 26 23 22 25 29 25 24 24 23 21 22 21 21 23 24 25 26 27 28 29 30 30 33 34 34 38 39 43 43 42 42 47 48 49 45 44 42 42
23 26 28 27 27 24 24 22 24 24 28 26 25 26 23 23 18 15 19 23 25 25 25 26 28 29 30 31 32 32 35 37 38 40 42 41 42 43 45 45 47 46 43 42
24 27 27 28 26 26 22 29 29 28 27 20 26 19 25 23 13 11 10 14 23 25 25 27 27 28 29 31 30 33 34 35 37 38 40 41 41 41 41 43 47 47 46 42
22 25 26 27 28 30 25 31 29 29 27 27 26 24 27 17 11 11 11 12 13 24 25 26 26 27 28 30 29 31 33 33 37 36 37 38 38 42 42 41 41 43 47 46
29 29 28 28 28 30 27 24 22 28 26 20 21 25 24 13 10 12 12 13 12 14 24 26 27 27 28 29 28 29 31 33 36 35 34 33 33 38 41 41 41 42 43 48
25 28 28 24 23 27 23 22 16 13 19 16 22 17 17 10 12 13 12 13 13 13 23 25 24 25 27 27 27 27 30 31 33 31 31 32 33 38 42 42 42 40 41 41
21 16 20 21 25 21 23 22 16 5 13 18 22 12 10 13 14 14 14 14 14 13 20 24 24 24 25 26 25 27 29 29 29 29 30 31 32 40 42 42 41 42 42 41
16 16 17 24 23 20 18 17 22 16 18 16 18 11 11 14 15 16 15 15 17 15 20 23 24 24 24 25 25 26 28 28 28 28 29 29 31 40 40 40 40 43 43 42
17 6 13 17 22 17 16 20 17 15 5 5 9 11 14 12 15 17 14 15 16 16 21 24 25 25 25 25 25 27 27 27 28 29 29 30 33 37 38 39 41 43 43 40
16 13 6 10 12 11 12 10 13 13 12 6 7 9 14 15 17 15 15 16 17 18 24 24 24 25 25 25 25 26 27 27 28 29 30 32 34 34 36 37 38 44 42 42
20 16 11 6 9 16 12 10 11 12 7 16 14 14 17 17 16 16 16 17 17 23 25 26 26 26 25 26 26 27 27 28 29 30 32 34 32 33 34 34 38 43 42 42
16 9 5 0 18 18 16 18 18 19 21 15 13 12 16 16 16 17 16 18 21 24 26 26 26 27 27 27 27 27 28 29 30 31 31 30 31 33 32 32 41 41 42 42
23 15 3 7 9 19 18 19 20 18 14 14 15 13 14 16 17 17 23 24 25 26 26 27 26 28 29 28 27 27 28 29 30 29 28 30 30 31 32 35 38 42 41 42
23 19 20 20 21 22 21 21 20 19 19 16 15 16 17 18 16 23 27 27 27 26 26 26 27 29 29 27 26 26 28 27 27 27 29 29 31 32 35 38 39 38 42 43
23 17 22 20 21 21 21 22 22 21 20 18 18 18 19 17 27 28 27 26 23 23 25 27 29 31 29 30 29 27 25 27 27 27 28 30 30 32 35 33 35 43 44 42
21 22 20 16 20 20 15 19 20 18 18 18 14 16 19 25 26 23 20 21 21 26 27 27 30 29 30 31 32 27 26 27 26 27 28 29 30 31 32 34 42 42 41 41
22 22 22 16 18 4 9 20 20 19 19 21 21 23 26 25 21 22 25 25 26 29 29 29 31 31 33 34 34 31 28 28 27 27 28 29 30 30 35 34 36 39 39 39
23 22 18 12 14 16 16 19 19 17 17 21 22 24 21 22 30 27 26 28 29 29 31 33 33 34 33 32 32 32 30 29 28 28 28 29 29 31 31 32 36 38 39 38
23 22 18 19 7 7 12 21 22 21 15 23 23 22 26 30 26 25 27 29 30 30 31 32 32 31 31 31 31 31 30 30 29 29 27 28 31 31 31 31 36 37 37 38
20 21 19 19 12 18 21 21 23 12 15 21 25 30 30 28 28 28 30 29 29 28 27 26 26 26 26 26 27 28 29 29 29 32 29 30 32 32 32 33 32 33 35 37
19 17 17 19 14 14 24 21 16 18 24 28 30 31 29 28 29 29 28 26 25 25 26 27 26 26 26 26 26 25 26 28 28 28 33 31 32 32 31 30 30 32 36 39
19 17 18 20 19 21 22 21 23 29 31 31 31 29 30 29 25 26 26 26 27 28 28 28 28 28 28 28 28 27 30 30 29 29 28 31 31 30 29 29 30 34 38 37
22 23 22 19 20 20 21 23 27 32 31 31 31 29 26 26 27 27 28 28 27 26 26 28 29 31 34 35 35 35 36 35 32 28 29 29 29 30 30 33 34 36 37 36
23 21 19 20 19 21 23 24 30 32 32 29 26 27 28 28 28 27 26 26 26 27 28 31 31 34 35 36 37 38 38 36 35 32 30 30 28 28 33 33 34 37 38 38
25 22 21 18 21 22 23 27 32 31 26 26 28 28 28 28 27 27 27 27 28 30 32 34 35 36 36 37 37 38 37 34 34 36 31 28 29 32 33 34 37 39 40 41
Lifted_Index
7 6 6 7 8 7 6 5 5 6 7 7 7 7 8 9 9 8 9 9 10 11 12 13 13 13 13 12 12 11 11 11 10 8 7 6 4 3 3 3 3 3 3 3
7 6 7 8 8 7 6 5 5 6 7 7 7 7 8 9 9 9 9 10 11 12 13 13 13 13 13 13 12 12 12 11 11 10 10 9 8 6 5 4 4 4 4 4
7 7 8 8 7 7 6 6 6 6 6 6 6 6 7 9 10 10 10 11 12 13 13 13 13 14 14 13 13 13 12 12 11 11 11 11 10 9 7 6 6 6 6 6
7 8 8 7 7 7 7 7 7 6 5 5 5 5 7 9 9 9 10 12 13 14 14 14 14 14 14 14 14 13 12 11 11 10 11 11 10 10 9 9 9 8 7 7
8 8 8 7 8 8 8 8 8 7 5 5 5 5 6 8 8 9 10 12 13 14 14 14 14 14 13 13 13 13 12 11 10 10 10 10 10 10 10 10 10 10 9 9
8 9 9 9 9 10 9 8 7 6 4 4 5 5 6 7 8 9 11 13 14 15 15 14 14 13 13 12 12 12 11 10 10 10 10 10 10 10 9 9 10 10 10 10
7 8 9 10 10 10 9 7 5 3 3 3 5 5 6 7 9 10 12 13 14 15 14 14 13 12 12 12 12 12 11 11 10 10 10 10 10 9 8 9 10 10 10 10
5 6 9 10 10 10 8 7 5 3 2 3 5 5 6 9 10 11 12 13 14 14 13 13 12 12 12 12 11 11 11 11 11 11 11 10 10 9 8 9 9 9 9 9
5 6 9 11 11 10 9 8 7 5 3 3 4 5 7 9 10 11 11 12 12 13 12 12 12 11 11 11 11 11 11 11 11 11 11 11 10 9 9 9 9 9 8 9
8 7 9 11 11 11 9 9 8 6 4 2 3 5 7 8 9 10 10 11 11 12 11 11 11 11 11 11 11 11 11 11 10 10 10 9 9 8 8 8 8 7 7 7
9 8 8 10 10 10 9 9 8 7 5 3 3 4 7 9 9 9 10 10 11 11 11 11 10 10 10 10 11 10 10 10 9 8 7 6 6 5 4 4 4 4 4 5
10 8 7 8 10 10 10 9 9 8 7 5 4 5 8 9 9 10 10 11 11 11 11 11 11 10 10 10 9 9 8 7 6 5 4 3 3 2 2 2 2 1 1 1
11 8 6 7 9 10 10 10 10 9 7 5 4 5 8 9 10 10 11 11 11 11 11 11 10 10 9 8 7 6 5 5 4 3 3 2 2 2 2 1 1 0 0 -0
11 9 7 6 8 9 8 9 9 9 7 5 5 6 8 9 10 11 11 11 11 11 10 10 10 9 7 6 5 4 3 3 3 3 2 2 2 2 2 1 1 0 -0 -1
10 9 7 7 8 8 8 7 8 8 7 6 6 7 8 10 11 11 11 11 11 10 10 9 8 7 6 5 4 4 3 3 3 3 2 2 2 2 2 1 1 0 -0 -0
9 8 7 7 8 8 7 7 7 8 8 7 7 8 9 10 11 11 11 10 10 10 9 8 7 6 5 5 4 4 3 3 3 3 2 2 2 2 2 1 1 0 -0 0
9 8 7 7 7 6 6 7 8 8 9 9 8 9 10 10 11 11 10 10 10 9 8 7 6 5 5 5 5 4 4 3 3 3 2 2 2 2 2 1 1 0 1 1
9 8 7 6 6 5 6 7 8 8 9 9 9 10 10 11 11 10 10 9 9 8 7 6 6 6 6 5 5 4 4 4 4 3 2 2 2 2 2 2 1 1 2 3
10 9 7 6 5 5 5 7 8 8 8 9 10 10 10 10 10 10 10 9 9 8 7 7 7 7 6 6 5 5 5 5 4 4 2 2 2 2 2 2 2 2 3 3
9 8 6 5 4 4 5 7 8 7 7 9 10 10 10 10 10 10 10 10 9 8 8 8 7 7 7 6 6 5 5 5 4 4 3 2 2 2 2 2 3 3 4 4
6 6 5 5 4 5 6 8 8 7 7 9 10 10 10 10 10 11 11 10 9 9 9 8 8 8 7 7 6 6 5 5 5 4 4 3 2 2 3 3 3 4 4 4
4 4 4 5 5 5 7 8 8 8 8 9 10 10 10 11 11 11 11 10 9 9 9 8 8 7 7 7 7 6 6 6 5 5 5 4 3 3 4 4 4 5 5 5
5 5 4 5 5 6 7 8 8 9 9 9 10 10 10 11 11 11 10 10 9 8 8 7 7 7 6 7 7 7 6 6 6 6 5 5 4 4 5 5 5 5 5 5
5 5 5 5 5 6 8 8 9 9 9 9 10 10 11 11 11 11 10 9 9 8 7 7 6 6 6 7 7 7 7 7 7 6 6 5 5 5 5 5 5 5 5 5
5 5 5 5 6 7 8 9 9 9 9 9 10 11 12 12 11 10 10 9 8 7 7 7 6 6 6 7 7 8 7 7 7 6 6 6 6 6 5 5 5 6 6 6
5 4 4 5 6 7 8 9 9 9 9 9 10 11 12 12 11 10 9 8 8 7 7 6 6 6 6 7 7 8 8 7 7 6 6 6 6 6 6 5 6 6 6 7